Location: Bednik
(45.3500°N, 16.3833°E)
Time: 08:12:25
(UTC+00:00)

SPOT 3 Rocket - Pass Details

Date: 08 August 2020
Orbit: 779 x 795 km, 98.8° (Epoch: 26 September)

Event Time Altitude Azimuth Distance (km) Brightness Sun altitude
Exits shadow 19:14:14 - 168° (SSE) 2,882 6.0 -10.3°
Reaches altitude 10° 19:15:33 10° 169° (SSE) 2,355 5.6 -10.5°
Maximum altitude 19:20:46 79° 256° (WSW) 811 3.7 -11.3°
Drops below altitude 10° 19:26:00 10° 344° (NNW) 2,364 6.9 -12.0°
Sets 19:28:20 0° 345° (NNW) 3,295 7.7 -12.3°
